EW1390 Weather Reports


Display with metric or nautical units.
time (UTC)temp
F
wind
direction
speed
MPH
gust
MPH
rain 1hr
in
rain 24hr
in
rain mn
in
humidity
%
barometer
mb
20260831224621 84 165 3.0 7.0 0.00 0.00 0.00 28 1003.8
20260831223047 83 231 0.0 5.0 0.00 0.00 0.00 27 1003.9
20260831221552 83 340 1.0 5.0 0.00 0.00 0.00 29 1004.1
20260831220050 83 210 0.0 3.0 0.00 0.00 0.00 30 1004.2
20260831214548 83 201 0.0 4.0 0.00 0.00 0.00 31 1004.2
20260831213043 83 238 1.0 8.0 0.00 0.00 0.00 31 1004.4
20260831211555 83 125 1.0 5.0 0.00 0.00 0.00 31 1004.3
20260831210039 82 275 0.0 9.0 0.00 0.00 0.00 33 1004.4
20260831204540 82 310 0.0 7.0 0.00 0.00 0.00 34 1004.4
20260831203041 82 24 1.0 7.0 0.00 0.00 0.00 33 1004.5
20260831201537 82 215 1.0 8.0 0.00 0.00 0.00 35 1004.5
20260831200036 82 223 1.0 9.0 0.00 0.00 0.00 35 1004.6
20260831194550 81 209 1.0 8.0 0.00 0.00 0.00 35 1004.8
20260831193047 82 257 2.0 7.0 0.00 0.00 0.00 34 1004.7
20260831191544 82 286 2.0 7.0 0.00 0.00 0.00 34 1004.7
20260831190030 82 104 1.0 5.0 0.00 0.00 0.00 34 1004.7
20260831184529 81 221 1.0 5.0 0.00 0.00 0.00 34 1004.7
20260831183029 81 221 0.0 4.0 0.00 0.00 0.00 35 1004.7
20260831181525 80 113 1.0 5.0 0.00 0.00 0.00 36 1004.8
20260831180021 80 211 0.0 3.0 0.00 0.00 0.00 38 1004.7
20260831174518 79 213 1.0 5.0 0.00 0.00 0.00 38 1004.6
20260831173016 78 148 0.0 4.0 0.00 0.00 0.00 40 1004.6
20260831171509 76 169 0.0 2.0 0.00 0.00 0.00 43 1004.4
20260831170005 73 173 0.0 3.0 0.00 0.00 0.00 48 1004.3
20260831164502 70 238 0.0 4.0 0.00 0.00 0.00 55 1004.3
20260831163057 64 263 0.0 3.0 0.00 0.00 0.00 72 1004.3
20260831161551 61 263 0.0 0.0 0.00 0.00 0.00 81 1004.2
20260831160048 59 263 0.0 0.0 0.00 0.00 0.00 82 1004.2
20260831154613 57 263 0.0 0.0 0.00 0.00 0.00 83 1004.2
20260831153045 56 263 0.0 0.0 0.00 0.00 0.00 82 1004.3
20260831151559 55 263 0.0 0.0 0.00 0.00 0.00 82 1004.2
20260831150042 54 263 0.0 0.0 0.00 0.00 0.00 82 1004.1
20260831144541 53 263 0.0 0.0 0.00 0.00 0.00 81 1004.0
20260831143041 53 263 0.0 0.0 0.00 0.00 0.00 81 1003.9
20260831141541 53 263 0.0 0.0 0.00 0.00 0.00 81 1003.8
20260831140041 53 263 0.0 0.0 0.00 0.00 0.00 80 1003.9
20260831134546 53 263 0.0 0.0 0.00 0.00 0.00 80 1003.8
20260831133040 53 263 0.0 0.0 0.00 0.00 0.00 80 1003.8
20260831131542 53 263 0.0 0.0 0.00 0.00 0.00 80 1003.7
20260831130043 53 263 0.0 0.0 0.00 0.00 0.00 79 1003.6
20260831124546 53 263 0.0 0.0 0.00 0.00 0.00 79 1003.6
20260831123035 53 263 0.0 0.0 0.00 0.00 0.00 78 1003.7
20260831121543 53 263 0.0 0.0 0.00 0.00 0.00 78 1003.7
20260831120037 53 263 0.0 0.0 0.00 0.00 0.00 77 1003.7
20260831114533 53 263 0.0 1.0 0.00 0.00 0.00 77 1003.7
20260831113030 54 263 0.0 0.0 0.00 0.00 0.00 77 1003.8
20260831111528 54 263 0.0 0.0 0.00 0.00 0.00 76 1003.7
20260831110027 54 263 0.0 2.0 0.00 0.00 0.00 76 1003.8
20260831104529 54 263 0.0 0.0 0.00 0.00 0.00 76 1003.7
20260831103031 54 263 0.0 0.0 0.00 0.00 0.00 75 1003.6
20260831101526 54 263 0.0 0.0 0.00 0.00 0.00 74 1003.6
20260831100025 54 263 0.0 0.0 0.00 0.00 0.00 74 1003.6
20260831094524 55 263 0.0 0.0 0.00 0.00 0.00 73 1003.6
20260831093035 55 263 0.0 0.0 0.00 0.00 0.00 72 1003.5
20260831091518 55 263 0.0 0.0 0.00 0.00 0.00 72 1003.6
20260831090016 55 263 0.0 0.0 0.00 0.00 0.00 71 1003.6
20260831084514 56 263 0.0 0.0 0.00 0.00 0.00 70 1003.6
20260831083013 56 263 0.0 0.0 0.00 0.00 0.00 69 1003.7
20260831081510 57 263 0.0 0.0 0.00 0.00 0.00 68 1003.8
20260831080007 57 263 0.0 0.0 0.00 0.00 0.00 67 1004.0
20260831074506 57 263 0.0 0.0 0.00 0.00 0.00 67 1004.0
20260831073006 58 263 0.0 0.0 0.00 0.00 0.00 66 1004.0
20260831071502 58 263 0.0 0.0 0.00 0.00 0.00 66 1004.0
20260831070059 58 263 0.0 0.0 0.00 0.00 0.00 65 1004.1
20260831064613 59 263 0.0 0.0 0.00 0.00 0.00 65 1004.3
20260831063105 59 263 0.0 0.0 0.00 0.00 0.00 64 1004.2
20260831061559 59 263 0.0 0.0 0.00 0.00 0.00 63 1004.2
20260831060105 60 263 0.0 0.0 0.00 0.00 0.00 62 1004.3
20260831054556 61 263 0.0 0.0 0.00 0.00 0.00 61 1004.4
20260831053056 61 263 0.0 0.0 0.00 0.00 0.00 60 1004.4
20260831051604 62 263 0.0 0.0 0.00 0.00 0.00 58 1004.4
20260831050055 62 263 0.0 0.0 0.00 0.00 0.00 57 1004.4
20260831044554 63 263 0.0 0.0 0.00 0.00 0.00 57 1004.5
20260831043054 64 263 0.0 0.0 0.00 0.00 0.00 55 1004.4
20260831041552 65 263 0.0 0.0 0.00 0.00 0.00 54 1004.2
20260831040051 66 263 0.0 0.0 0.00 0.00 0.00 53 1004.1
20260831034551 67 263 0.0 0.0 0.00 0.00 0.00 51 1003.9
20260831033054 68 263 0.0 0.0 0.00 0.00 0.00 51 1003.7
20260831031549 69 263 0.0 0.0 0.00 0.00 0.00 51 1003.7
20260831030050 70 263 0.0 1.0 0.00 0.00 0.00 50 1003.6
20260831024556 72 263 0.0 0.0 0.00 0.00 0.00 48 1003.5
20260831023056 74 263 0.0 2.0 0.00 0.00 0.00 45 1003.4
20260831021547 76 263 0.0 2.0 0.00 0.00 0.00 43 1003.4
20260831020108 78 263 0.0 0.0 0.00 0.00 0.00 40 1003.5
20260831014546 80 263 0.0 1.0 0.00 0.00 0.00 38 1003.5
20260831013045 82 263 0.0 2.0 0.00 0.00 0.00 35 1003.5
20260831011556 83 263 0.0 0.0 0.00 0.00 0.00 33 1003.5
20260831010045 84 263 0.0 4.0 0.00 0.00 0.00 29 1003.5
20260831004548 86 263 0.0 2.0 0.00 0.00 0.00 30 1003.6
20260831003042 85 263 0.0 3.0 0.00 0.00 0.00 30 1003.6
20260831001542 86 223 2.0 4.0 0.00 0.00 0.00 28 1003.6
20260831000041 87 214 0.0 5.0 0.00 0.00 0.00 28 1003.6
20260830234639 87 38 0.0 4.0 0.00 0.00 0.00 28 1003.7
20260830233040 87 195 0.0 4.0 0.00 0.00 0.00 29 1003.9
20260830231537 87 190 0.0 4.0 0.00 0.00 0.00 29 1003.9
20260830230033 87 225 1.0 6.0 0.00 0.00 0.00 29 1004.0